Location: Mason-Dixon Star Party
(40.0361°N, 76.9958°W)
Time: 22:36:14
(UTC-04:00)

Daily predictions for brighter satellites

Satellite Brightness Start Highest point End
(mag) Time Altitude Azimuth Time Altitude Azimuth Time Altitude Azimuth
Cosmos 1943 4.5 19:18:35 10° SW 19:24:02 47° WNW 19:29:32 10° NNE
ALOS 2.5 19:19:34 10° SSE 19:24:05 52° ENE 19:28:37 10° N
Cosmos 2292 Rocket 4.4 19:22:28 10° SSW 19:25:30 39° W 19:28:17 10° N
Cosmos 1271 Rocket 2.9 19:22:02 10° SSW 19:25:48 78° W 19:29:38 10° N
USA 81 4.4 19:22:26 10° N 19:27:31 45° E 19:32:33 10° SSE
Cosmos 2150 Rocket 4.1 19:23:05 10° NNW 19:28:25 65° ENE 19:33:47 10° SSE
COSMO-SKYMED 1 3.1 19:27:01 10° N 19:31:21 67° WNW 19:35:38 10° SSW
USA 229 DEB 4.0 19:24:50 10° NW 19:32:03 80° WSW 19:39:22 10° SSE
USA 229 4.0 19:24:56 10° NW 19:32:08 81° WSW 19:39:28 10° SSE
SAR-Lupe-3 4.5 19:32:16 10° NNE 19:35:51 75° ESE 19:39:25 10° S
Cosmos 2181 Rocket 3.9 19:30:04 10° N 19:36:16 74° E 19:42:22 10° SSE
NOSS 3-1 (A) 4.4 19:29:06 10° NNW 19:36:27 50° NE 19:44:32 10° ESE
Cosmos 1758 Rocket 3.6 19:32:51 10° N 19:37:22 83° E 19:41:52 10° S
Cosmos 841 Rocket 3.5 19:32:36 10° S 19:37:38 59° ESE 19:42:41 10° NNE
Cosmos 1726 Rocket 3.6 19:36:46 10° S 19:41:07 89° WNW 19:45:29 10° N
Cosmos 1340 Rocket 3.0 19:37:17 10° NNW 19:41:22 79° W 19:45:26 10° S
FREGAT/IRIS 3.0 19:39:30 10° SSE 19:42:23 41° ENE 19:45:16 10° N
Cosmos 389 Rocket 3.4 19:39:03 10° SSW 19:42:28 52° WNW 19:45:53 10° N
Cosmos 1937 Rocket 3.6 19:37:16 10° NNW 19:42:36 85° WSW 19:47:51 10° SSE
NOSS 3-1 (C) 4.1 19:37:34 10° NNW 19:45:12 70° NE 19:53:38 10° SE
Cosmos 2084 3.7 19:43:12 10° SW 19:47:16 65° NW 19:51:10 10° NNE
Cosmos 2074 Rocket 4.1 19:42:55 10° SSE 19:48:53 52° E 19:54:52 10° NNE
CZ-2D R/B 4.5 19:47:59 11° ESE 19:50:44 23° ENE 19:53:46 10° NNE
Cosmos 2298 Rocket 4.5 19:48:24 10° NNW 19:53:42 66° WSW 19:58:57 10° S
Cosmos 1943 Rocket 3.3 19:49:15 10° NW 19:54:34 47° WSW 19:59:55 10° S
Cosmos 540 Rocket 3.8 19:49:53 10° S 19:54:36 40° ESE 19:59:22 10° NE
Cosmos 1763 Rocket 3.8 19:51:50 10° SSW 19:56:54 69° WNW 20:02:05 10° NNE
HJ-1C 3.6 19:56:41 10° SSE 19:59:54 46° ENE 20:03:09 10° N
Meteor 1-24 Rocket 3.9 19:55:05 10° N 20:00:59 59° ENE 20:06:40 10° SSE
Cosmos 2228 3.4 20:02:28 10° SSW 20:06:49 70° W 20:11:09 10° N
SJ-6B 2.7 20:08:35 10° SSE 20:12:37 81° ENE 20:16:33 10° N
Cosmos 1953 3.8 20:17:35 20° ENE 20:17:35 20° ENE 20:19:38 10° NE
Resurs 01 Rocket 2.1 20:14:19 20° SE 20:16:51 40° ENE 20:20:59 10° N
Nadezhda 3 Rocket 4.3 20:12:22 10° N 20:18:19 42° ENE 20:23:05 15° SE
Cosmos 1356 Rocket 3.7 20:16:08 10° NNW 20:20:26 74° W 20:24:44 10° S
Cosmos 1812 Rocket 3.7 20:16:21 10° SSE 20:20:38 50° E 20:24:59 10° NNE
GP-B 3.5 20:16:44 10° NNE 20:20:55 40° E 20:23:34 20° SSE
Meteor 2-8 Rocket 4.4 20:16:29 10° N 20:22:35 66° E 20:28:37 10° SSE
H-2A R/B 3.2 20:20:57 10° S 20:24:36 60° W 20:28:19 10° NNW
Cosmos 2184 Rocket 4.1 20:20:17 10° S 20:26:35 82° W 20:33:00 10° N
Spot 2 Rocket 3.7 20:24:52 24° SE 20:27:38 47° ENE 20:32:28 10° N
Cosmos 1656 Rocket 4.3 20:23:25 10° NNW 20:28:57 58° WSW 20:34:21 10° S
Cosmos 1610 Rocket 4.4 20:26:21 10° S 20:32:41 79° E 20:39:05 10° N
BREEZE-M DEB (TANK) 3.6 20:32:02 10° NNW 20:32:50 13° N 20:32:50 13° N
Meteor 2-19 Rocket 4.3 20:28:11 10° S 20:34:11 70° E 20:40:12 10° NNE
Cosmos 292 Rocket 4.0 20:33:51 10° S 20:38:28 47° ESE 20:43:08 10° NNE
Milstar 3 Cent rocket 3.5 20:38:21 10° SW 20:41:53 19° S 20:42:11 19° SSE
COSMOS 2406 3.7 20:39:08 10° SW 20:44:45 62° WNW 20:50:28 10° NNE
Cosmos 783 Rocket 4.4 20:40:27 10° S 20:45:35 64° ESE 20:50:44 10° NNE
Cosmos 1766 4.5 20:42:11 10° SSW 20:45:55 43° W 20:49:41 10° N
BREEZE-M (TANK) 4.1 20:34:09 10° WNW 20:45:58 51° SW 20:48:02 27° SSE
MOS 1-B Rocket 3.8 20:43:09 20° SSE 20:47:37 73° ENE 20:53:17 10° N
Okean 3 Rocket 4.3 20:43:36 10° N 20:46:57 35° NE 20:46:57 35° NE
ISS -2.8 20:44:52 10° SW 20:47:03 38° SSW 20:47:03 38° SSW
Cosmos 1544 4.2 20:45:42 10° SSW 20:49:08 43° W 20:52:37 10° N
Cosmos 1125 Rocket 3.7 20:48:43 10° NNW 20:54:00 73° WSW 20:57:04 26° S
Cosmos 1356 3.7 20:52:52 10° NNW 20:56:11 68° WNW 20:56:11 68° WNW
BREEZE-M DEB (TANK) 3.4 20:46:42 10° WSW 20:57:54 81° NNW 20:59:22 44° NE
Cosmos 372 Rocket 4.1 20:53:11 10° NNW 20:58:27 76° WSW 21:00:50 33° S
Cosmos 2369 4.2 20:53:55 10° N 20:59:14 39° ENE 20:59:15 39° ENE
Cosmos 1674 3.6 20:55:40 10° N 20:58:04 37° N 20:58:04 37° N
Envisat 2.9 20:57:59 39° SSE 20:59:57 89° E 21:05:04 10° NNW
Cosmos 1758 3.3 20:59:36 60° SSW 21:00:16 81° W 21:04:18 10° N
Meteor 1-21 Rocket 4.1 20:55:35 10° N 21:01:20 69° E 21:02:33 53° SE
ATLAS CENTAUR R/B 4.0 20:56:34 10° NW 21:07:07 41° WSW 21:09:50 22° SSW
Cosmos 962 Rocket 4.4 21:01:55 10° S 21:08:17 84° E 21:14:41 10° N
Cosmos 1939 Rocket 3.9 21:14:51 37° N 21:14:51 37° N 21:17:21 10° NNW
H-2A R/B 4.3 21:18:39 12° NNE 21:18:39 12° NNE 21:19:11 10° NNE
SJ-11-01 4.4 21:16:35 68° N 21:16:35 68° N 21:20:44 10° N
ATLAS 2AS CENTAUR R/B 3.3 21:10:50 10° NNW 21:18:32 47° NE 21:19:38 44° ENE
Cosmos 2278 3.9 21:28:17 10° NNW 21:33:04 61° N 21:33:04 61° N
Resurs 01 Rocket 4.1 21:51:54 15° WSW 21:53:29 18° W 21:56:29 10° NW
Cosmos 1697 Rocket 3.8 21:50:43 10° NNW 21:54:10 37° N 21:54:10 37° N
Cosmos 1656 4.5 21:51:35 10° NNW 21:55:33 47° NNW 21:55:33 47° NNW
FALCON 9 R/B 3.5 21:53:00 10° WSW 21:55:15 33° SW 21:55:15 33° SW
Cosmos 1980 Rocket 3.8 21:52:30 10° N 21:55:07 25° N 21:55:07 25° N
ATLAS 2AS CENTAUR R/B 4.2 23:02:11 10° NW 23:07:05 34° WNW 23:07:05 34° WNW
